Вернуться в каталог

SL-8 R/B

АктивенLEO
NORAD 11427·ROCKET BODY·🇷🇺 Russia

Запущен Jun 28, 1979 с Plesetsk Cosmodrome

Loading…

Ближайшие Пролёты (ближайшие 24 часа)

TLE

СвежийSource: Space-Track

Эпоха: Sep 14, 2026, 19:13 UTC

1 11427U 79060B   26257.80121768  .00000059  00000-0  27854-4 0  9996
2 11427  74.0143 283.0464 0020285 331.0579  28.9449 14.38915583472925

Отслеживайте SL-8 R/B в реальном времени с AllMySat

Download on the App Store